DW2633 Weather Reports


time (UTC)temp
F
wind
direction
speed
knots
gust
knots
rain 1hr
in
rain 24hr
in
rain mn
in
humidity
%
barometer
mb
20260504221538 68 225 7.8 0.0 0.00 0.00 0.00 43 1003.7
20260504221033 68 230 8.7 0.0 0.00 0.00 0.00 44 1003.8
20260504220533 68 240 9.6 0.0 0.00 0.00 0.00 47 1003.8
20260504220030 68 250 8.7 0.0 0.00 0.00 0.00 47 1003.9
20260504215530 68 219 7.0 0.0 0.00 0.00 0.00 44 1003.9
20260504215030 68 227 8.7 0.0 0.00 0.00 0.00 47 1003.9
20260504214529 68 221 9.6 0.0 0.00 0.00 0.00 46 1003.9
20260504214028 68 215 8.7 0.0 0.00 0.00 0.00 47 1004.0
20260504213530 68 238 8.7 0.0 0.00 0.00 0.00 46 1004.0
20260504213028 67 230 9.6 0.0 0.00 0.00 0.00 45 1004.0
20260504212528 67 224 9.6 0.0 0.00 0.00 0.00 46 1004.0
20260504212028 67 221 10.4 0.0 0.00 0.00 0.00 52 1004.0
20260504211526 67 247 11.3 0.0 0.00 0.00 0.00 48 1004.1
20260504211027 67 239 11.3 0.0 0.00 0.00 0.00 48 1004.1
20260504210527 67 246 10.4 0.0 0.00 0.00 0.00 50 1004.1
20260504210025 67 219 9.6 0.0 0.00 0.00 0.00 48 1004.1
20260504205529 68 229 9.6 0.0 0.00 0.00 0.00 48 1004.2
20260504205023 67 232 9.6 0.0 0.00 0.00 0.00 51 1004.2
20260504204531 67 223 11.3 0.0 0.00 0.00 0.00 49 1004.2
20260504204023 67 229 12.2 0.0 0.00 0.00 0.00 47 1004.2
20260504203523 66 223 11.3 0.0 0.00 0.00 0.00 49 1004.3
20260504203025 66 207 9.6 0.0 0.00 0.00 0.00 53 1004.3
20260504202522 66 250 9.6 0.0 0.00 0.00 0.00 52 1004.3
20260504202022 66 242 10.4 0.0 0.00 0.00 0.00 55 1004.3
20260504201521 67 234 8.7 0.0 0.00 0.00 0.00 54 1004.3
20260504201021 67 258 7.8 0.0 0.00 0.00 0.00 55 1004.4
20260504200520 67 236 8.7 0.0 0.00 0.00 0.00 52 1004.4
20260504200020 68 235 9.6 0.0 0.00 0.00 0.00 51 1004.5
20260504195518 68 249 11.3 0.0 0.00 0.00 0.00 50 1004.6
20260504195018 68 239 11.3 0.0 0.00 0.00 0.00 50 1004.7
20260504194518 68 241 13.0 0.0 0.00 0.00 0.00 48 1004.8
20260504194017 68 234 14.8 0.0 0.00 0.00 0.00 51 1004.9
20260504193515 67 227 14.8 0.0 0.00 0.00 0.00 51 1004.9
20260504193015 67 221 14.8 0.0 0.00 0.00 0.00 46 1004.9
20260504192514 67 244 13.9 0.0 0.00 0.00 0.00 55 1005.0
20260504192012 67 236 15.6 0.0 0.00 0.00 0.00 54 1005.1
20260504191514 66 246 17.4 0.0 0.00 0.00 0.00 53 1005.1
20260504191012 66 247 17.4 0.0 0.00 0.00 0.00 55 1005.2
20260504190511 67 241 14.8 0.0 0.00 0.00 0.00 54 1005.3
20260504190010 67 252 17.4 0.0 0.00 0.00 0.00 53 1005.3
20260504185509 67 247 19.1 0.0 0.00 0.00 0.00 53 1005.3
20260504185009 67 255 18.2 0.0 0.00 0.00 0.00 55 1005.4
20260504184513 67 252 17.4 0.0 0.00 0.00 0.00 57 1005.4
20260504184008 67 250 15.6 0.0 0.00 0.00 0.00 57 1005.4
20260504183507 66 244 13.9 0.0 0.00 0.00 0.00 54 1005.4
20260504183005 65 248 13.0 0.0 0.00 0.00 0.00 57 1005.4
20260504182504 65 251 12.2 0.0 0.00 0.00 0.00 53 1005.5
20260504182004 64 261 13.9 0.0 0.00 0.00 0.00 57 1005.5
20260504181504 64 246 15.6 0.0 0.00 0.00 0.00 55 1005.6
20260504181004 64 234 13.9 0.0 0.00 0.00 0.00 53 1005.6
20260504180504 64 250 11.3 0.0 0.00 0.00 0.00 56 1005.6
20260504180004 64 244 11.3 0.0 0.00 0.00 0.00 55 1005.6
20260504175502 65 238 12.2 0.0 0.00 0.00 0.00 54 1005.6
20260504175001 65 263 11.3 0.0 0.00 0.00 0.00 53 1005.6
20260504174501 65 196 12.2 0.0 0.00 0.00 0.00 51 1005.6
20260504174002 65 215 13.0 0.0 0.00 0.00 0.00 53 1005.7
20260504173604 65 252 12.2 0.0 0.00 0.00 0.00 57 1005.7
20260504173101 65 252 11.3 0.0 0.00 0.00 0.00 55 1005.8
20260504172558 65 255 13.0 0.0 0.00 0.00 0.00 58 1005.9
20260504172057 65 258 15.6 0.0 0.00 0.00 0.00 56 1006.0
20260504171557 65 246 17.4 0.0 0.00 0.00 0.00 56 1006.0
20260504171056 64 224 16.5 0.0 0.00 0.00 0.00 56 1006.1
20260504170555 64 246 15.6 0.0 0.00 0.00 0.00 57 1006.1
20260504151032 57 227 13.9 0.0 0.00 0.00 0.00 61 1007.4
20260504150535 57 223 12.2 0.0 0.00 0.00 0.00 58 1007.5
20260504141025 56 243 7.0 0.0 0.00 0.00 0.00 62 1007.6
20260504140524 55 238 7.8 0.0 0.00 0.00 0.00 60 1007.7
20260504130511 51 0.0 0.0 0.00 0.00 0.00 61 1007.9
20260504110525 40 138 4.3 0.0 0.00 0.00 0.00 86 1008.3
20260504100519 38 140 4.3 0.0 0.00 0.00 0.00 86 1008.1
20260504081553 44 146 4.3 0.0 0.00 0.00 0.00 82 1008.2
20260504081055 44 144 3.5 0.0 0.00 0.00 0.00 82 1008.4
20260504080552 44 145 2.6 0.0 0.00 0.00 0.00 81 1008.3
20260504050539 46 227 4.3 0.0 0.00 0.00 0.00 77 1008.6
20260504045537 46 225 3.5 0.0 0.00 0.00 0.00 77 1008.9
20260504045036 46 227 4.3 0.0 0.00 0.00 0.00 77 1009.0
20260504044535 46 242 5.2 0.0 0.00 0.00 0.00 77 1009.0
20260504044035 46 229 6.1 0.0 0.00 0.00 0.00 76 1009.0
20260504043535 46 238 7.8 0.0 0.00 0.00 0.00 78 1009.0
20260504043040 46 233 7.0 0.0 0.00 0.00 0.00 77 1009.0
20260504042532 47 249 7.8 0.0 0.00 0.00 0.00 77 1009.0
20260504042032 47 223 9.6 0.0 0.00 0.00 0.00 78 1008.9
20260504041532 47 248 11.3 0.0 0.00 0.00 0.00 78 1009.1
20260504041030 47 247 13.0 0.0 0.00 0.00 0.00 78 1009.2
20260504040529 47 257 14.8 0.0 0.00 0.00 0.00 78 1009.3
20260504040028 47 258 15.6 0.0 0.00 0.00 0.00 78 1009.3
20260504035529 47 252 15.6 0.0 0.00 0.00 0.00 77 1009.4
20260504035028 47 252 15.6 0.0 0.00 0.00 0.00 76 1009.4
20260504034528 47 251 14.8 0.0 0.00 0.00 0.00 76 1009.4
20260504034027 47 267 13.0 0.0 0.00 0.00 0.00 76 1009.5
20260504033527 48 270 13.0 0.0 0.00 0.00 0.00 73 1009.4
20260504033027 48 281 13.0 0.0 0.00 0.00 0.00 73 1009.4
20260504032527 47 289 11.3 0.0 0.00 0.00 0.00 73 1009.5
20260504032027 47 278 9.6 0.0 0.00 0.00 0.00 72 1009.4
20260504031528 47 290 8.7 0.0 0.00 0.00 0.00 72 1009.4
20260504031026 47 282 7.8 0.0 0.00 0.00 0.00 71 1009.2
20260504030526 47 282 7.0 0.0 0.00 0.00 0.00 70 1009.1
20260504030027 47 298 5.2 0.0 0.00 0.00 0.00 68 1009.2
20260504025526 47 311 4.3 0.0 0.00 0.00 0.00 68 1009.1
20260504025027 47 355 5.2 0.0 0.00 0.00 0.00 71 1009.2
20260504024525 47 9 5.2 0.0 0.00 0.00 0.00 67 1009.2
20260504024024 47 346 5.2 0.0 0.00 0.00 0.00 67 1009.2
20260504023526 47 12 5.2 0.0 0.00 0.00 0.00 70 1009.1
20260504023025 47 360 6.1 0.0 0.00 0.00 0.00 68 1009.2
20260504022525 47 355 7.0 0.0 0.00 0.00 0.00 68 1009.1
20260504022025 48 325 7.0 0.0 0.00 0.00 0.00 67 1009.1
20260504021524 48 337 7.0 0.0 0.00 0.00 0.00 68 1009.2
20260504021024 47 355 7.8 0.0 0.00 0.00 0.00 65 1009.2
20260504020525 48 326 8.7 0.0 0.00 0.00 0.00 67 1009.2
20260504020024 48 325 8.7 0.0 0.00 0.00 0.00 67 1009.3
20260504015524 48 322 8.7 0.0 0.00 0.00 0.00 66 1009.3
20260504015024 48 333 10.4 0.0 0.00 0.00 0.00 67 1009.3
20260504014533 48 303 13.0 0.0 0.00 0.00 0.00 66 1009.3
20260504014023 48 302 12.2 0.0 0.00 0.00 0.00 67 1009.3
20260504013522 48 299 8.7 0.0 0.00 0.00 0.00 64 1009.4
20260504013034 48 309 7.8 0.0 0.00 0.00 0.00 63 1009.3
20260504012522 48 321 7.8 0.0 0.00 0.00 0.00 63 1009.3
20260504012022 48 311 9.6 0.0 0.00 0.00 0.00 60 1009.3
20260504011522 49 294 11.3 0.0 0.00 0.00 0.00 63 1009.3
20260504011021 48 295 13.9 0.0 0.00 0.00 0.00 61 1009.3
20260504010521 48 286 12.2 0.0 0.00 0.00 0.00 63 1009.1
20260504010021 48 296 8.7 0.0 0.00 0.00 0.00 63 1009.1
20260504005521 48 286 9.6 0.0 0.00 0.00 0.00 61 1009.0
20260504005021 48 289 8.7 0.0 0.00 0.00 0.00 61 1009.0
20260504004522 48 284 8.7 0.0 0.00 0.00 0.00 60 1008.9
20260504004021 48 287 9.6 0.0 0.00 0.00 0.00 58 1008.8
20260504003522 49 286 10.4 0.0 0.00 0.00 0.00 54 1008.8
20260504003020 49 308 11.3 0.0 0.00 0.00 0.00 55 1008.8
20260504002521 49 294 13.0 0.0 0.00 0.00 0.00 59 1008.7
20260504002020 49 286 14.8 0.0 0.00 0.00 0.00 56 1008.7
20260504001521 49 292 15.6 0.0 0.00 0.00 0.00 58 1008.7
20260504001020 49 287 16.5 0.0 0.00 0.00 0.00 57 1008.6
20260504000519 49 288 16.5 0.0 0.00 0.00 0.00 58 1008.5
20260504000020 50 281 15.6 0.0 0.00 0.00 0.00 54 1008.5
20260503235521 50 291 14.8 0.0 0.00 0.00 0.00 53 1008.5
20260503235019 50 298 16.5 0.0 0.00 0.00 0.00 53 1008.5
20260503234521 50 288 18.2 0.0 0.00 0.00 0.00 53 1008.4
20260503234022 50 360 17.4 0.0 0.00 0.00 0.00 52 1008.3
20260503233519 50 300 16.5 0.0 0.00 0.00 0.00 52 1008.4
20260503233021 51 296 17.4 0.0 0.00 0.00 0.00 53 1008.2
20260503232519 51 301 19.1 0.0 0.00 0.00 0.00 50 1008.1
20260503232021 51 288 20.0 0.0 0.00 0.00 0.00 52 1008.0
20260503231520 51 295 20.9 0.0 0.00 0.00 0.00 53 1007.9
20260503231019 51 360 21.7 0.0 0.00 0.00 0.00 53 1007.8
20260503230520 51 360 20.9 0.0 0.00 0.00 0.00 51 1007.7
20260503230017 51 280 17.4 0.0 0.00 0.00 0.00 52 1007.6
20260503225517 51 296 14.8 0.0 0.00 0.00 0.00 50 1007.6
20260503225018 51 319 13.9 0.0 0.00 0.00 0.00 52 1007.5
20260503224517 51 283 15.6 0.0 0.00 0.00 0.00 52 1007.5
20260503224019 51 269 15.6 0.0 0.00 0.00 0.00 51 1007.5
20260503223516 51 295 16.5 0.0 0.00 0.00 0.00 49 1007.5
20260503223016 51 298 17.4 0.0 0.00 0.00 0.00 48 1007.4
20260503222515 51 298 17.4 0.0 0.00 0.00 0.00 53 1007.5
20260503222118 51 311 17.4 0.0 0.00 0.00 0.00 50 1007.4